[[{"header":{"parameterUnit":"m.s-1","parameterCategory":1,"la1":30.2991,"la2":30.254,"lo1":-89.0895,"lo2":-89.0444,"dy":0.0017,"dx":0.0017,"nx":28,"ny":28,"refTime":"2025-02-28T09:00:00:Z","depth":0,"parameterNumber":2,"parameterNumberName":"U-component_of_WINDS"},"data":[0,0,0,0,0,0,0,0,0,0,0,0,0,0,0,0,0,0,0,0,0,0,0,0,0,0,0,0,0,0,0,0,0,0,0,0,0,0,0,0,0,0,0,0,0,0,0,0,0,0,0,0,0,0,0,0,0,0,1.4178,1.4179,0,1.4217,1.4217,1.4218,1.4216,1.4216,1.4215,1.4215,1.4257,1.4258,1.426,0,0,0,0,0,0,0,0,0,0,0,0,0,1.4107,1.4108,1.4178,1.4179,1.4179,1.4217,1.4217,1.4218,1.4216,1.4216,1.4215,1.4214,1.4256,1.4258,1.426,0,0,0,0,0,0,0,0,0,0,0,0,0,1.4141,1.4109,1.4178,1.4183,1.4184,1.4216,1.4217,1.4218,1.4216,1.4216,1.4215,1.4214,1.4255,1.4258,1.426,1.4291,0,0,1.4268,1.4269,0,0,0,0,0,0,0,0,1.4139,1.4144,1.4182,1.4183,1.4184,1.4211,1.4207,1.4243,1.4217,1.4204,1.4215,1.4214,1.4242,1.4246,1.4255,1.4293,1.4295,1.4268,1.4269,1.427,1.4271,0,0,0,0,0,0,0,1.4137,1.4142,1.4193,1.4182,1.4183,1.4184,1.4188,1.4214,1.4227,1.4205,1.4205,1.421,1.4243,1.4252,1.4256,1.4296,1.4268,1.427,1.4271,1.4272,1.4365,1.4366,0,0,0,0,0,0,1.4133,1.414,1.4192,1.4195,1.4159,1.4186,1.4191,1.4203,1.4227,1.423,1.421,1.4209,1.4249,1.4253,1.4257,1.4297,1.427,1.4273,1.4274,1.4364,1.4365,1.4366,0,0,0,0,0,0,1.4132,1.4138,1.4191,1.4167,1.4174,1.4188,1.4202,1.4204,1.4214,1.4231,1.4233,1.4218,1.4248,1.4254,1.4283,1.4298,1.4274,1.4276,1.4363,1.4364,1.4365,1.4375,0,0,0,0,0,0,1.4129,1.4137,1.4148,1.4168,1.4175,1.4215,1.4203,1.4205,1.4218,1.4217,1.4238,1.4241,1.4248,1.428,1.4286,1.4301,1.4278,1.4361,1.4363,1.4365,1.4374,1.4377,1.438,0,0,0,0,0,1.4127,1.4149,1.4149,1.4155,1.4189,1.4216,1.422,1.4227,1.4219,1.4231,1.4242,1.4241,1.4296,1.4283,1.4289,1.4306,1.436,1.4363,1.4365,1.4373,1.4376,1.438,0,0,0,0,0,0,1.4131,1.4152,1.4151,1.418,1.4196,1.4215,1.423,1.4231,1.4249,1.4248,1.4256,1.4261,1.4291,1.4301,1.4287,1.4339,1.4327,1.4331,1.4331,1.4335,1.4338,1.4335,1.428,0,0,0,0,0,1.4136,1.4154,1.4172,1.4196,1.4204,1.4216,1.4228,1.4232,1.4249,1.4256,1.4269,1.4286,1.4308,1.4322,1.4342,1.4375,1.4381,1.439,1.4393,1.4396,1.4399,1.442,1.4424,1.4373,1.4373,1.4373,0,0,1.4145,1.4158,1.417,1.4197,1.421,1.4231,1.4222,1.4243,1.4259,1.4259,1.4288,1.4299,1.4319,1.4351,1.4366,1.436,1.4414,1.4399,1.44,1.4402,1.4422,1.4427,1.4431,1.4375,1.4375,1.4374,0,0,1.4172,1.4184,1.4206,1.4219,1.4239,1.4247,1.4253,1.4272,1.4279,1.4308,1.4309,1.4329,1.4365,1.438,1.4392,1.4428,1.4428,1.4435,1.445,1.447,1.4474,1.4478,1.4492,1.4497,1.4438,1.4438,1.4438,0,1.4181,1.4211,1.4218,1.424,1.4253,1.4254,1.4278,1.429,1.4316,1.4326,1.4319,1.4366,1.438,1.4416,1.4425,1.4434,1.4442,1.4432,1.4473,1.4477,1.448,1.4494,1.4499,1.4439,1.4438,1.4438,1.4438,0,1.4223,1.4244,1.426,1.4284,1.4299,1.4322,1.4333,1.4348,1.4351,1.436,1.4391,1.4408,1.4433,1.4441,1.4445,1.4479,1.4476,1.4471,1.446,1.4486,1.4499,1.4504,1.444,1.4439,1.4439,1.4439,0,0,1.4252,1.4282,1.4287,1.43,1.4322,1.4339,1.4364,1.4387,1.4401,1.4419,1.444,1.4472,1.4468,1.4483,1.4488,1.4505,1.4535,1.4499,1.4499,1.4506,1.4576,1.458,1.4585,1.4535,1.4536,1.4536,1.4575,0,1.4283,1.4324,1.4332,1.4369,1.439,1.4392,1.4413,1.4431,1.4441,1.4461,1.4472,1.4495,1.4488,1.4497,1.4514,1.4527,1.4549,1.4524,1.4556,1.4557,1.4551,1.4592,1.4596,1.4631,1.458,1.458,1.4581,0,1.4323,1.4343,1.4382,1.4404,1.4413,1.4432,1.4456,1.4475,1.4495,1.4501,1.4518,1.4522,1.4549,1.4536,1.4575,1.4558,1.4572,1.458,1.4582,1.4585,1.4571,1.4598,1.4642,1.4647,1.4589,1.4588,1.4588,0,1.4343,1.4379,1.4408,1.4418,1.4444,1.4457,1.4469,1.4489,1.4503,1.4525,1.4535,1.4559,1.4572,1.4592,1.4603,1.4592,1.4641,1.4629,1.4648,1.4648,1.4658,1.4658,1.4706,1.4666,1.4666,1.4666,1.4666,0,1.4376,1.44,1.4417,1.4435,1.4463,1.4472,1.45,1.4511,1.4529,1.455,1.4554,1.4574,1.4587,1.4609,1.4618,1.465,1.4656,1.4663,1.4665,1.4663,1.4662,1.4672,1.467,1.4667,1.4667,1.4667,1.4666,0,1.4402,1.4414,1.4446,1.4468,1.4475,1.4495,1.4515,1.4533,1.4543,1.457,1.4577,1.4594,1.4621,1.4634,1.4667,1.4674,1.471,1.471,1.4703,1.4704,1.4723,1.4721,1.478,1.4789,1.4742,1.4742,1.4743,0,1.4423,1.4442,1.4467,1.4481,1.4493,1.4516,1.4532,1.4542,1.4558,1.4585,1.46,1.4627,1.4649,1.4692,1.4708,1.4735,1.4736,1.4755,1.474,1.4738,1.4738,1.4737,1.474,1.4758,1.4758,1.4758,1.4759,0,1.4459,1.4464,1.4486,1.4511,1.4529,1.4549,1.4568,1.458,1.4594,1.4613,1.464,1.4657,1.4692,1.4719,1.4747,1.476,1.4763,1.4764,1.477,1.4768,1.4763,1.4767,1.4711,1.4762,1.4762,1.4761,1.4761,1.4761,1.4483,1.4501,1.4522,1.4547,1.4563,1.4582,1.46,1.4614,1.4637,1.4666,1.4671,1.4701,1.4723,1.4761,1.4775,1.48,1.4796,1.4804,1.4806,1.4808,1.481,1.4759,1.4805,1.4805,1.4805,1.4805,1.4805,0,1.452,1.4535,1.4557,1.4585,1.4605,1.4605,1.4628,1.4645,1.4671,1.4691,1.4713,1.4746,1.4773,1.4792,1.4821,1.4837,1.4839,1.4844,1.4843,1.4847,1.4812,1.4804,1.4842,1.4842,1.4842,1.4842,1.4842,1.4842,1.4542,1.4572,1.4581,1.462,1.4635,1.4664,1.4677,1.4695,1.4711,1.4748,1.477,1.4783,1.4803,1.4833,1.4859,1.4864,1.4875,1.488,1.4886,1.4853,1.4849,1.4845,1.4838,1.4882,1.4882,1.4919,1.4919,1.4919]},{"header":{"parameterUnit":"m.s-1","parameterCategory":1,"la1":30.2991,"la2":30.254,"lo1":-89.0895,"lo2":-89.0444,"dy":0.0017,"dx":0.0017,"nx":28,"ny":28,"refTime":"2025-02-28T09:00:00:Z","depth":0,"parameterNumber":3,"parameterNumberName":"V-component_of_WINDS"},"data":[0,0,0,0,0,0,0,0,0,0,0,0,0,0,0,0,0,0,0,0,0,0,0,0,0,0,0,0,0,0,0,0,0,0,0,0,0,0,0,0,0,0,0,0,0,0,0,0,0,0,0,0,0,0,0,0,0,0,2.7078,2.7079,0,2.7177,2.7178,2.7179,2.7157,2.7155,2.7153,2.7152,2.7251,2.7256,2.726,0,0,0,0,0,0,0,0,0,0,0,0,0,2.6864,2.6868,2.7078,2.7079,2.708,2.7177,2.7178,2.7179,2.7157,2.7155,2.7153,2.7151,2.725,2.7255,2.726,0,0,0,0,0,0,0,0,0,0,0,0,0,2.6959,2.687,2.7078,2.7081,2.7082,2.7176,2.7178,2.718,2.7158,2.7155,2.7152,2.715,2.7248,2.7255,2.7261,2.7358,0,0,2.7281,2.7284,0,0,0,0,0,0,0,0,2.6954,2.6967,2.7079,2.7081,2.7083,2.7152,2.7139,2.7239,2.7159,2.7129,2.7152,2.7148,2.722,2.7229,2.7254,2.7362,2.7367,2.7282,2.7286,2.7289,2.7291,0,0,0,0,0,0,0,2.6947,2.6963,2.7117,2.7081,2.7083,2.7076,2.7086,2.7158,2.7189,2.7132,2.713,2.7142,2.7221,2.7247,2.7256,2.7368,2.7282,2.7288,2.7292,2.7294,2.7553,2.7556,0,0,0,0,0,0,2.694,2.6958,2.7114,2.712,2.701,2.7082,2.7093,2.7132,2.7188,2.7194,2.7145,2.7141,2.7238,2.7248,2.7259,2.7371,2.7289,2.7295,2.7299,2.755,2.7554,2.7557,0,0,0,0,0,0,2.6935,2.6954,2.711,2.7038,2.7058,2.7088,2.7132,2.7136,2.7163,2.7198,2.7203,2.7166,2.7236,2.725,2.7332,2.7374,2.7298,2.7304,2.7547,2.7551,2.7555,2.7599,0,0,0,0,0,0,2.6929,2.6953,2.6992,2.7039,2.7062,2.7183,2.7135,2.714,2.7174,2.717,2.722,2.7226,2.7235,2.7322,2.7338,2.7382,2.7309,2.7543,2.7549,2.7554,2.7593,2.7604,2.7613,0,0,0,0,0,2.6922,2.7001,2.6994,2.7013,2.7111,2.7185,2.7198,2.7207,2.7178,2.7215,2.7237,2.7224,2.7367,2.7331,2.7349,2.7395,2.754,2.7547,2.7553,2.7589,2.7602,2.7613,0,0,0,0,0,0,2.6959,2.7008,2.7,2.7097,2.7137,2.7181,2.723,2.7221,2.727,2.7265,2.7273,2.7285,2.7367,2.7389,2.7348,2.7488,2.7449,2.746,2.747,2.7483,2.7492,2.7484,2.7314,0,0,0,0,0,2.6978,2.7035,2.7075,2.7157,2.7177,2.72,2.7233,2.7236,2.7277,2.7294,2.7322,2.7362,2.7415,2.745,2.7502,2.7597,2.7604,2.7637,2.7646,2.7654,2.7663,2.7708,2.7722,2.7578,2.7578,2.7578,0,0,2.7019,2.7052,2.7089,2.7165,2.7196,2.7252,2.7214,2.7278,2.7319,2.7304,2.7381,2.7403,2.7447,2.7534,2.7574,2.7556,2.7704,2.7663,2.7669,2.7673,2.7717,2.773,2.7742,2.7583,2.7582,2.7581,0,0,2.7121,2.7155,2.7223,2.7254,2.7301,2.7315,2.7331,2.7376,2.7389,2.7467,2.7455,2.7503,2.7597,2.7627,2.7655,2.7761,2.7749,2.7778,2.7828,2.7873,2.7884,2.7894,2.7928,2.7941,2.7787,2.7787,2.7787,0,2.7166,2.7252,2.726,2.7322,2.7354,2.7341,2.7408,2.7438,2.75,2.752,2.7499,2.7611,2.7641,2.7732,2.7757,2.7782,2.7798,2.7772,2.7882,2.7892,2.7901,2.7934,2.7947,2.779,2.7789,2.7789,2.7789,0,2.7302,2.7361,2.7411,2.7468,2.7506,2.7571,2.7585,2.7622,2.762,2.7635,2.7711,2.7746,2.7801,2.7823,2.7824,2.7913,2.7899,2.788,2.7841,2.7918,2.7948,2.7961,2.7794,2.7793,2.7792,2.7791,0,0,2.7434,2.749,2.7508,2.7531,2.7579,2.7624,2.7686,2.7739,2.7768,2.781,2.7859,2.7935,2.7916,2.7947,2.795,2.799,2.8066,2.7965,2.7966,2.7979,2.816,2.8172,2.8187,2.8058,2.8061,2.8063,2.8155,0,2.7537,2.7647,2.7653,2.7751,2.7803,2.7789,2.7842,2.7875,2.789,2.7934,2.7949,2.8002,2.7975,2.7992,2.8031,2.8049,2.8102,2.8042,2.8102,2.8104,2.8089,2.8204,2.8218,2.8304,2.8168,2.817,2.8171,0,2.7674,2.7717,2.782,2.7854,2.7877,2.7925,2.797,2.8014,2.805,2.8057,2.8089,2.8085,2.8144,2.8104,2.8184,2.8143,2.8167,2.8179,2.8182,2.8187,2.8141,2.8208,2.8332,2.8344,2.8191,2.8189,2.8188,0,2.7754,2.7838,2.7909,2.7929,2.7973,2.8006,2.8025,2.8058,2.8088,2.8128,2.8146,2.8193,2.8218,2.8253,2.826,2.823,2.8338,2.8299,2.8343,2.8342,2.8366,2.8364,2.8492,2.8386,2.8385,2.8385,2.8385,0,2.7868,2.7931,2.7944,2.7988,2.8055,2.806,2.8126,2.8143,2.8172,2.8216,2.8207,2.8248,2.8256,2.8298,2.8304,2.8366,2.8379,2.8384,2.8384,2.8383,2.8382,2.8398,2.8391,2.8389,2.8388,2.8387,2.8387,0,2.7969,2.7982,2.8057,2.809,2.81,2.8148,2.8175,2.8215,2.8226,2.8282,2.8295,2.8313,2.8361,2.8371,2.843,2.8433,2.8506,2.8502,2.8494,2.8493,2.8534,2.8529,2.8676,2.8694,2.8578,2.8579,2.858,0,2.8041,2.8088,2.8124,2.8153,2.8173,2.822,2.8249,2.8253,2.8283,2.8324,2.8358,2.8405,2.8443,2.852,2.8537,2.858,2.8575,2.8624,2.8582,2.8578,2.8572,2.8568,2.857,2.8631,2.8633,2.8634,2.8634,0,2.8164,2.8166,2.8208,2.8251,2.8285,2.8319,2.8352,2.8375,2.8383,2.8417,2.8466,2.8495,2.8552,2.8597,2.8639,2.8657,2.8646,2.8647,2.8659,2.8658,2.8649,2.865,2.8513,2.8644,2.8643,2.8642,2.8642,2.8641,2.825,2.8288,2.8319,2.8364,2.8388,2.8417,2.8455,2.8469,2.851,2.8556,2.8555,2.8607,2.8636,2.8691,2.8711,2.875,2.8735,2.8753,2.8757,2.876,2.8762,2.8644,2.8758,2.8758,2.8757,2.8757,2.8757,0,2.8369,2.8386,2.8428,2.8472,2.8506,2.8492,2.8526,2.8555,2.8601,2.8629,2.8665,2.8718,2.876,2.8779,2.882,2.8847,2.8843,2.8857,2.8854,2.8858,2.8776,2.876,2.886,2.886,2.886,2.886,2.886,2.886,2.8435,2.8498,2.8503,2.8576,2.8593,2.8643,2.8662,2.8687,2.8709,2.8768,2.8803,2.8814,2.8837,2.8879,2.8916,2.892,2.8934,2.8951,2.8952,2.8875,2.8864,2.8854,2.8839,2.8954,2.8954,2.903,2.9031,2.9032]}]]